Location: Albany
(35.0000°S, 118.0000°E)
Time: 16:23:24
(UTC-04:00)

SJ-6B - Visible Passes

Search period start: 23 September 2014 00:00
Search period end: 03 October 2014 00:00
Orbit: 520 x 597 km, 97.8° (Epoch: 22 September)

Date Brightness Start Highest point End Pass type
(mag) Time Alt. Az. Time Alt. Az. Time Alt. Az.
23 Sep 3.5 06:36:14 10° S 06:40:07 62° WSW 06:44:01 10° NNW visible
23 Sep 4.1 17:19:07 10° NNE 17:22:50 45° ESE 17:26:32 10° S visible
24 Sep 3.4 06:34:38 10° S 06:38:32 65° WSW 06:42:29 10° NNW visible
24 Sep 4.2 17:17:35 10° NE 17:21:15 43° ESE 17:24:56 10° S visible
25 Sep 3.3 06:33:02 10° S 06:36:58 69° WSW 06:40:56 10° NNW visible
25 Sep 4.3 17:16:03 10° NE 17:19:41 41° ESE 17:23:19 10° S visible
26 Sep 3.2 06:31:27 10° S 06:35:24 72° WSW 06:39:23 10° NNW visible
26 Sep 4.5 17:14:30 10° NE 17:18:06 39° ESE 17:21:42 10° S visible
27 Sep 3.1 06:29:51 10° S 06:33:49 76° WSW 06:37:49 10° NNW visible
27 Sep 4.6 17:12:58 10° NE 17:16:31 37° ESE 17:20:05 10° S visible
28 Sep 3.0 06:28:14 10° S 06:32:14 80° WSW 06:36:15 10° NNW visible
28 Sep 4.7 17:11:25 10° NE 17:14:56 35° ESE 17:18:27 10° S visible
29 Sep 3.0 06:26:38 10° S 06:30:38 84° WSW 06:34:41 10° NNW visible
29 Sep 4.8 17:09:53 10° NE 17:13:20 33° ESE 17:16:49 10° S visible
30 Sep 4.9 17:08:20 10° NE 17:11:45 32° ESE 17:15:10 10° S visible
01 Oct 5.0 17:06:47 10° NE 17:10:09 30° ESE 17:13:32 10° S visible
02 Oct 5.2 17:05:14 10° NE 17:08:32 29° ESE 17:11:52 10° SSE visible
